Villa Grove, CO

11:15 PM MST on February 08, 2016 (GMT -0700)
Monarch Pass

Weather History for KMYP - March, 2013

Change the Weather History Date:

Friday, March 1, 2013

  Actual Average (KGUC) Record (KGUC)
Temperature  
Mean Temperature 14 °F -  
Max Temperature 21 °F 31 °F 51 °F (1999)
Min Temperature 6 °F 9 °F -9 °F (1998)
Degree Days  
Heating Degree Days 52    
Moisture  
Dew Point 11 °F    
Average Humidity 87    
Maximum Humidity 93    
Minimum Humidity 79    
Precipitation  
Precipitation 0.00 in - - ()
Sea Level Pressure  
Sea Level Pressure 30.41 in    
Wind  
Wind Speed 32 mph (West)    
Max Wind Speed 39 mph    
Max Gust Speed 48 mph    
Averages and records for this station are not official NWS values.
T = Trace of Precipitation, MM = Missing Value Source: NWS Daily Summary

Daily Weather History Graph

Daily Weather History Graph

Search for Another Location

Airport or City:

Trip Planner

Search our weather history database for the weather conditions in past years. The results will help you decide how hot, cold, wet, or windy it might be!

Date:

Astronomy

Mar. 01, 2013 Rise Set
Actual Time 6:36 AM MST 5:58 PM MST
Civil Twilight 6:09 AM MST 6:24 PM MST
Nautical Twilight 5:39 AM MST 6:55 PM MST
Astronomical Twilight 5:08 AM MST 7:26 PM MST
Moon 10:30 PM MST (3/1) 8:28 AM MST (3/1)
Length of Visible Light 12h 15m
Length of Day
11h 22m
Waning Gibbous, 83% of the Moon is Illuminated
Mar 1
Waning Gibbous
Mar 4
Last Quarter
Mar 11
New
Mar 19
First Quarter
Mar 27
Full

Hourly Weather History & Observations

Time (MST) Temp. Windchill Dew Point Humidity Pressure Visibility Wind Dir Wind Speed Gust Speed Precip Events Conditions
12:18 AM 8.6 °F - 5.0 °F 85% 30.29 in - North - - N/A   Unknown
12:38 AM 8.6 °F -16.6 °F 3.2 °F 79% 30.29 in - West 39.1 mph - N/A   Unknown
1:18 AM 8.6 °F - 3.2 °F 79% 30.32 in - North - - N/A   Unknown
1:38 AM 8.6 °F - 5.0 °F 85% 30.33 in - North - - N/A   Unknown
1:58 AM 8.6 °F - 3.2 °F 79% 30.33 in - North - - N/A   Overcast
2:18 AM 8.6 °F - 3.2 °F 79% 30.32 in - North - - N/A   Overcast
2:38 AM 8.6 °F - 3.2 °F 79% 30.30 in - North - - N/A   Overcast
2:58 AM 8.6 °F - 3.2 °F 79% 30.29 in - North - - N/A   Overcast
3:18 AM 8.6 °F - 3.2 °F 79% 30.29 in - North - - N/A   Overcast
3:38 AM 8.6 °F -16.6 °F 3.2 °F 79% 30.29 in - West 39.1 mph - N/A   Overcast
4:18 AM 8.6 °F - 3.2 °F 79% 30.29 in - North - - N/A   Overcast
4:38 AM 8.6 °F - 5.0 °F 85% 30.29 in - North - - N/A   Overcast
4:58 AM 8.6 °F - 5.0 °F 85% 30.31 in - North - - N/A   Overcast
5:18 AM 8.6 °F -16.6 °F 3.2 °F 79% 30.30 in - West 39.1 mph 48.3 mph N/A   Overcast
5:38 AM 6.8 °F -18.8 °F 3.2 °F 85% 30.31 in - West 38.0 mph 43.7 mph N/A   Overcast
5:58 AM 6.8 °F -18.8 °F 3.2 °F 85% 30.31 in - West 38.0 mph - N/A   Overcast
6:38 AM 8.6 °F - 5.0 °F 85% 30.32 in - North - - N/A   Unknown
6:58 AM 8.6 °F - 5.0 °F 85% 30.33 in - North - - N/A   Unknown
7:18 AM 8.6 °F - 5.0 °F 85% 30.34 in - North - - N/A   Unknown
7:38 AM 8.6 °F - 5.0 °F 85% 30.34 in - North - - N/A   Unknown
7:58 AM 8.6 °F - 5.0 °F 85% 30.35 in - North - - N/A   Unknown
8:18 AM 10.4 °F - 8.6 °F 92% 30.37 in - North - - N/A   Overcast
8:38 AM 12.2 °F - 8.6 °F 85% 30.38 in - North - - N/A   Unknown
8:58 AM 12.2 °F - 10.4 °F 92% 30.39 in - North - - N/A   Unknown
9:18 AM 12.2 °F - 10.4 °F 92% 30.40 in - North - - N/A   Overcast
9:38 AM 14.0 °F - 10.4 °F 86% 30.41 in - North - - N/A   Overcast
10:18 AM 14.0 °F - 12.2 °F 93% 30.43 in - North - - N/A   Unknown
10:38 AM 14.0 °F - 12.2 °F 93% 30.43 in - North - - N/A   Overcast
11:18 AM 14.0 °F - 12.2 °F 93% 30.44 in - North - - N/A   Overcast
11:38 AM 15.8 °F - 12.2 °F 86% 30.44 in - North - - N/A   Overcast
11:58 AM 17.6 °F - 14.0 °F 86% 30.45 in - North - - N/A   Overcast
12:18 PM 17.6 °F 0.5 °F 14.0 °F 86% 30.44 in - WSW 21.9 mph 28.8 mph N/A   Overcast
12:38 PM 17.6 °F -1.6 °F 14.0 °F 86% 30.45 in - West 28.8 mph 34.5 mph N/A   Overcast
12:58 PM 17.6 °F -0.3 °F 14.0 °F 86% 30.45 in - West 24.2 mph 31.1 mph N/A   Overcast
1:18 PM 17.6 °F 0.1 °F 14.0 °F 86% 30.44 in - West 23.0 mph 31.1 mph N/A   Overcast
1:38 PM 17.6 °F -0.6 °F 15.8 °F 93% 30.44 in - West 25.3 mph 34.5 mph N/A   Overcast
1:58 PM 19.4 °F 3.2 °F 15.8 °F 86% 30.45 in - West 20.7 mph 28.8 mph N/A   Overcast
2:18 PM 19.4 °F 1.8 °F 17.6 °F 93% 30.45 in - West 25.3 mph 29.9 mph N/A   Overcast
2:38 PM 19.4 °F 2.1 °F 17.6 °F 93% 30.45 in - West 24.2 mph 29.9 mph N/A   Overcast
3:18 PM 19.4 °F 1.4 °F 17.6 °F 93% 30.44 in - West 26.5 mph - N/A   Mostly Cloudy
3:38 PM 21.2 °F 5.6 °F 19.4 °F 93% 30.45 in - West 20.7 mph 27.6 mph N/A   Unknown
3:58 PM 19.4 °F 2.5 °F 17.6 °F 93% 30.45 in - West 23.0 mph - N/A   Mostly Cloudy
4:18 PM 19.4 °F 2.8 °F 17.6 °F 93% 30.45 in - West 21.9 mph 25.3 mph N/A   Overcast
4:38 PM 19.4 °F - 17.6 °F 93% 30.46 in - North - - N/A   Overcast
4:58 PM 19.4 °F - 15.8 °F 86% 30.46 in - North - - N/A   Overcast
5:18 PM 17.6 °F - 15.8 °F 93% 30.46 in - North - - N/A   Overcast
5:38 PM 17.6 °F - 15.8 °F 93% 30.47 in - North - - N/A   Overcast
5:58 PM 17.6 °F - 14.0 °F 86% 30.47 in - North - - N/A   Overcast
6:18 PM 17.6 °F - 14.0 °F 86% 30.47 in - North - - N/A   Overcast
6:38 PM 17.6 °F - 14.0 °F 86% 30.48 in - North - - N/A   Overcast
6:58 PM 17.6 °F - 14.0 °F 86% 30.48 in - North - - N/A   Overcast
7:18 PM 17.6 °F - 14.0 °F 86% 30.51 in - North - - N/A   Overcast
7:38 PM 17.6 °F - 14.0 °F 86% 30.51 in - North - - N/A   Overcast
7:58 PM 17.6 °F - 14.0 °F 86% 30.51 in - North - - N/A   Overcast
8:18 PM 17.6 °F - 14.0 °F 86% 30.51 in - North - - N/A   Overcast
8:38 PM 17.6 °F - 14.0 °F 86% 30.50 in - North - - N/A   Overcast
8:58 PM 15.8 °F - 14.0 °F 93% 30.50 in - North - - N/A   Overcast
9:18 PM 15.8 °F - 12.2 °F 86% 30.49 in - North - - N/A   Overcast
9:38 PM 15.8 °F - 12.2 °F 86% 30.52 in - North - - N/A   Overcast
9:58 PM 15.8 °F - 12.2 °F 86% 30.51 in - North - - N/A   Overcast
10:38 PM 14.0 °F - 12.2 °F 93% 30.51 in - North - - N/A   Unknown
11:18 PM 14.0 °F - 12.2 °F 93% 30.51 in - North - - N/A   Overcast
11:38 PM 14.0 °F - 12.2 °F 93% 30.51 in - North - - N/A   Overcast
11:58 PM 14.0 °F - 12.2 °F 93% 30.52 in - North - - N/A   Overcast